1KUNS-PF

Last updated on Fri Jun 12 2020 00:02:08 GMT+0000 (Coordinated Universal Time)

1 43466U 98067NP 20162.72983235 .07919004 12439-4 62785-3 0 9997 2 43466 51.6123 283.7308 0007318 301.8476 166.2040 16.39179723119460

Satellite not in orbit

1KUNS-PF